,,,PA_Meas_PMT16A,,PR_Meas_QMR101_102,,RH_Meas_QMH101,,SR_Meas_QMS101,,TA_Meas_QMH101,,GenWind,,GenWind,
date,time,status,PA,status,PR,status,RH,status,SR,status,TA,status,DirAvg,status,SpdAvg,
2009-05-16, 00:00:05,VALID,1002.75,VALID,0,VALID,94.3082,VALID,0.100563,VALID,24.4414,VALID,357,VALID,0.436328,
2009-05-16, 00:01:05,VALID,1002.75,VALID,0,VALID,94.3006,VALID,0.100563,VALID,24.4006,VALID,357,VALID,0.424219,
2009-05-16, 00:02:05,VALID,1002.72,VALID,0,VALID,94.3235,VALID,0.100563,VALID,24.4025,VALID,357,VALID,0.432031,
2009-05-16, 00:03:05,VALID,1002.73,VALID,0,VALID,94.3311,VALID,0.100563,VALID,24.4025,VALID,357,VALID,0.372266,
2009-05-16, 00:04:05,VALID,1002.72,VALID,0,VALID,94.3158,VALID,0.100563,VALID,24.4025,VALID,357,VALID,0.417578,
2009-05-16, 00:05:05,VALID,1002.67,VALID,0,VALID,94.2624,VALID,0.100563,VALID,24.3636,VALID,357,VALID,0.332812,
2009-05-16, 00:06:05,VALID,1002.67,VALID,0,VALID,94.2777,VALID,0.100563,VALID,24.3441,VALID,357,VALID,0.384375,
2009-05-16, 00:07:05,VALID,1002.66,VALID,0,VALID,94.3235,VALID,0,VALID,24.3441,VALID,357,VALID,0.330469,
2009-05-16, 00:08:05,VALID,1002.63,VALID,0,VALID,94.2853,VALID,0.100563,VALID,24.3246,VALID,357,VALID,0.344531,
2009-05-16, 00:09:05,VALID,1002.63,VALID,0,VALID,94.3769,VALID,0.100563,VALID,24.3052,VALID,357,VALID,0.341797,
2009-05-16, 00:10:05,VALID,1002.64,VALID,0,VALID,94.3387,VALID,0.100563,VALID,24.3246,VALID,357,VALID,0.336719,
2009-05-16, 00:11:05,VALID,1002.66,VALID,0,VALID,94.3464,VALID,0.100563,VALID,24.3246,VALID,357,VALID,0.283594,
2009-05-16, 00:12:05,VALID,1002.64,VALID,0,VALID,94.3692,VALID,0,VALID,24.3265,VALID,357,VALID,0.368359,
2009-05-16, 00:13:05,VALID,1002.63,VALID,0,VALID,94.3311,VALID,0,VALID,24.307,VALID,357,VALID,0.426953,
2009-05-16, 00:14:05,VALID,1002.64,VALID,0,VALID,94.3082,VALID,0,VALID,24.2875,VALID,357,VALID,0.380469,
2009-05-16, 00:15:05,VALID,1002.63,VALID,0,VALID,94.3235,VALID,0,VALID,24.3283,VALID,357,VALID,0.472266,
2009-05-16, 00:16:05,VALID,1002.59,VALID,0,VALID,94.3616,VALID,0,VALID,24.2875,VALID,357,VALID,0.504297,
2009-05-16, 00:17:05,VALID,1002.62,VALID,0,VALID,94.3311,VALID,0,VALID,24.2875,VALID,357,VALID,0.526953,
2009-05-16, 00:18:05,VALID,1002.6,VALID,0,VALID,94.3235,VALID,0,VALID,24.2875,VALID,357,VALID,0.607813,
2009-05-16, 00:19:05,VALID,1002.6,VALID,0,VALID,94.3158,VALID,0,VALID,24.2681,VALID,357,VALID,0.454297,
2009-05-16, 00:20:05,VALID,1002.58,VALID,0,VALID,94.3921,VALID,0,VALID,24.2681,VALID,357,VALID,0.570313,
2009-05-16, 00:21:05,VALID,1002.58,VALID,0,VALID,94.3845,VALID,0,VALID,24.2681,VALID,357,VALID,0.366406,
2009-05-16, 00:22:05,VALID,1002.58,VALID,0,VALID,94.415,VALID,0,VALID,24.2875,VALID,357,VALID,0.520703,
2009-05-16, 00:23:05,VALID,1002.6,VALID,0,VALID,94.4303,VALID,0,VALID,24.2875,VALID,357,VALID,0.378125,
2009-05-16, 00:24:05,VALID,1002.61,VALID,0,VALID,94.4532,VALID,0,VALID,24.307,VALID,357,VALID,0.497266,
2009-05-16, 00:25:05,VALID,1002.59,VALID,0,VALID,94.4761,VALID,0,VALID,24.2857,VALID,357,VALID,0.420703,
2009-05-16, 00:26:05,VALID,1002.59,VALID,0,VALID,94.4913,VALID,0,VALID,24.3265,VALID,357,VALID,0.385938,
2009-05-16, 00:27:05,VALID,1002.57,VALID,0,VALID,94.4761,VALID,0,VALID,24.3478,VALID,357,VALID,0.36875,
2009-05-16, 00:28:05,VALID,1002.56,VALID,0,VALID,94.4455,VALID,0,VALID,24.3265,VALID,357,VALID,0.271094,
2009-05-16, 00:29:05,VALID,1002.59,VALID,0,VALID,94.5066,VALID,0,VALID,24.3265,VALID,357,VALID,0.415234,
2009-05-16, 00:30:05,VALID,1002.56,VALID,0,VALID,94.5066,VALID,0,VALID,24.3265,VALID,357,VALID,0.441016,
2009-05-16, 00:31:05,VALID,1002.52,VALID,0,VALID,94.4455,VALID,0,VALID,24.3478,VALID,357,VALID,0.386328,
2009-05-16, 00:32:05,VALID,1002.52,VALID,0,VALID,94.4379,VALID,0,VALID,24.307,VALID,357,VALID,0.439063,
2009-05-16, 00:33:05,VALID,1002.55,VALID,0,VALID,94.3692,VALID,0,VALID,24.307,VALID,357,VALID,0.499609,
2009-05-16, 00:34:05,VALID,1002.54,VALID,0,VALID,94.3998,VALID,0,VALID,24.2875,VALID,357,VALID,0.303125,
2009-05-16, 00:35:05,VALID,1002.56,VALID,0,VALID,94.4532,VALID,0,VALID,24.2875,VALID,357,VALID,0.369922,
2009-05-16, 00:36:05,VALID,1002.55,VALID,0,VALID,94.415,VALID,0.100563,VALID,24.2681,VALID,357,VALID,0.332812,
2009-05-16, 00:37:05,VALID,1002.58,VALID,0,VALID,94.5295,VALID,0,VALID,24.2875,VALID,357,VALID,0.194141,
2009-05-16, 00:38:05,VALID,1002.61,VALID,0,VALID,94.5829,VALID,0,VALID,24.3052,VALID,357,VALID,0.257422,
2009-05-16, 00:39:05,VALID,1002.59,VALID,0,VALID,94.5218,VALID,0,VALID,24.3052,VALID,357,VALID,0.288281,
2009-05-16, 00:40:05,VALID,1002.62,VALID,0,VALID,94.4913,VALID,0,VALID,24.3265,VALID,357,VALID,0.355859,
2009-05-16, 00:41:05,VALID,1002.57,VALID,0,VALID,94.4455,VALID,0,VALID,24.2875,VALID,357,VALID,0.384375,
2009-05-16, 00:42:05,VALID,1002.57,VALID,0,VALID,94.4303,VALID,0,VALID,24.2875,VALID,357,VALID,0.439844,
2009-05-16, 00:43:05,VALID,1002.59,VALID,0,VALID,94.3692,VALID,0,VALID,24.2486,VALID,357,VALID,0.523047,
2009-05-16, 00:44:05,VALID,1002.55,VALID,0,VALID,94.4379,VALID,0,VALID,24.2468,VALID,357,VALID,0.608594,
2009-05-16, 00:45:05,VALID,1002.57,VALID,0,VALID,94.4227,VALID,0,VALID,24.2486,VALID,357,VALID,0.555859,
2009-05-16, 00:46:05,VALID,1002.56,VALID,0,VALID,94.3692,VALID,0,VALID,24.2291,VALID,357,VALID,0.517578,
2009-05-16, 00:47:05,VALID,1002.53,VALID,0,VALID,94.415,VALID,0,VALID,24.2291,VALID,357,VALID,0.526172,
2009-05-16, 00:48:05,VALID,1002.52,VALID,0,VALID,94.3921,VALID,0,VALID,24.2097,VALID,357,VALID,0.525391,
2009-05-16, 00:49:05,VALID,1002.56,VALID,0,VALID,94.3158,VALID,0,VALID,24.1494,VALID,357,VALID,0.557813,
2009-05-16, 00:50:05,VALID,1002.55,VALID,0,VALID,94.56,VALID,0,VALID,24.2097,VALID,357,VALID,0.486328,
2009-05-16, 00:51:05,VALID,1002.56,VALID,0,VALID,94.5142,VALID,0,VALID,24.2291,VALID,357,VALID,0.520312,
2009-05-16, 00:52:05,VALID,1002.59,VALID,0,VALID,94.4303,VALID,0,VALID,24.2291,VALID,357,VALID,0.521094,
2009-05-16, 00:53:05,VALID,1002.64,VALID,0,VALID,94.4684,VALID,0,VALID,24.2291,VALID,357,VALID,0.554688,
2009-05-16, 00:54:05,VALID,1002.66,VALID,0,VALID,94.4455,VALID,0,VALID,24.2097,VALID,357,VALID,0.386328,
2009-05-16, 00:55:05,VALID,1002.68,VALID,0,VALID,94.3921,VALID,0,VALID,24.192,VALID,357,VALID,0.453125,
2009-05-16, 00:56:05,VALID,1002.68,VALID,0,VALID,94.3464,VALID,0,VALID,24.1513,VALID,357,VALID,0.304688,
2009-05-16, 00:57:05,VALID,1002.7,VALID,0,VALID,94.3845,VALID,0.100563,VALID,24.13,VALID,357,VALID,0.335547,
2009-05-16, 00:58:05,VALID,1002.7,VALID,0,VALID,94.415,VALID,0.100563,VALID,24.13,VALID,357,VALID,0.113281,
2009-05-16, 00:59:05,VALID,1002.71,VALID,0,VALID,94.4761,VALID,0.100563,VALID,24.1494,VALID,357,VALID,0.225391,
2009-05-16, 01:00:05,VALID,1002.73,VALID,0,VALID,94.4532,VALID,0.100563,VALID,24.1476,VALID,357,VALID,0.402344,
2009-05-16, 01:01:05,VALID,1002.73,VALID,0,VALID,94.4684,VALID,0.100563,VALID,24.1494,VALID,357,VALID,0.363281,
2009-05-16, 01:02:05,VALID,1002.72,VALID,0,VALID,94.4913,VALID,0,VALID,24.1494,VALID,357,VALID,0.207031,
2009-05-16, 01:03:05,VALID,1002.72,VALID,0,VALID,94.4761,VALID,0.100563,VALID,24.1689,VALID,357,VALID,0.19375,
2009-05-16, 01:04:05,VALID,1002.7,VALID,0,VALID,94.4913,VALID,0.100563,VALID,24.1689,VALID,357,VALID,0.199219,
2009-05-16, 01:05:05,VALID,1002.71,VALID,0,VALID,94.5218,VALID,0.100563,VALID,24.1884,VALID,357,VALID,0.18125,
2009-05-16, 01:06:05,VALID,1002.71,VALID,0,VALID,94.5066,VALID,0,VALID,24.1884,VALID,357,VALID,0.196094,
2009-05-16, 01:07:05,VALID,1002.71,VALID,0,VALID,94.4455,VALID,0.100563,VALID,24.1689,VALID,357,VALID,0.351953,
2009-05-16, 01:08:05,VALID,1002.7,VALID,0,VALID,94.3311,VALID,0.100563,VALID,24.1281,VALID,357,VALID,0.414063,
2009-05-16, 01:09:05,VALID,1002.69,VALID,0,VALID,94.3158,VALID,0,VALID,24.1105,VALID,357,VALID,0.426953,
2009-05-16, 01:10:05,VALID,1002.65,VALID,0,VALID,94.293,VALID,0.100563,VALID,24.0697,VALID,357,VALID,0.457422,
2009-05-16, 01:11:05,VALID,1002.66,VALID,0,VALID,94.2624,VALID,0.100563,VALID,24.0521,VALID,357,VALID,0.428125,
2009-05-16, 01:12:05,VALID,1002.62,VALID,0,VALID,94.2014,VALID,0,VALID,23.9955,VALID,357,VALID,0.559766,
2009-05-16, 01:13:05,VALID,1002.64,VALID,0,VALID,94.2472,VALID,0,VALID,23.9955,VALID,357,VALID,0.328516,
2009-05-16, 01:14:05,VALID,1002.6,VALID,0,VALID,94.2777,VALID,0,VALID,23.9973,VALID,357,VALID,0.296094,
2009-05-16, 01:15:05,VALID,1002.61,VALID,0,VALID,94.3082,VALID,0,VALID,23.9761,VALID,357,VALID,0.204297,
2009-05-16, 01:16:05,VALID,1002.58,VALID,0,VALID,94.3464,VALID,0,VALID,23.9761,VALID,357,VALID,0.35,
2009-05-16, 01:17:05,VALID,1002.58,VALID,0,VALID,94.3998,VALID,0,VALID,23.9955,VALID,357,VALID,0.427734,
2009-05-16, 01:18:05,VALID,1002.6,VALID,0,VALID,94.4227,VALID,0,VALID,23.9761,VALID,357,VALID,0.216797,
2009-05-16, 01:19:05,VALID,1002.56,VALID,0,VALID,94.4684,VALID,0,VALID,24.015,VALID,357,VALID,0.396484,
2009-05-16, 01:20:05,VALID,1002.54,VALID,0,VALID,94.4761,VALID,0,VALID,23.9955,VALID,357,VALID,0.417578,
2009-05-16, 01:21:05,VALID,1002.53,VALID,0,VALID,94.4608,VALID,0,VALID,23.9955,VALID,357,VALID,0.294531,
2009-05-16, 01:22:05,VALID,1002.51,VALID,0,VALID,94.4684,VALID,0,VALID,23.9955,VALID,357,VALID,0.301172,
2009-05-16, 01:23:05,VALID,1002.53,VALID,0,VALID,94.4989,VALID,0,VALID,23.9955,VALID,357,VALID,0.344922,
2009-05-16, 01:24:05,VALID,1002.49,VALID,0,VALID,94.5371,VALID,0,VALID,23.9955,VALID,357,VALID,0.447266,
2009-05-16, 01:25:05,VALID,1002.47,VALID,0,VALID,94.5676,VALID,0,VALID,24.015,VALID,357,VALID,0.534375,
2009-05-16, 01:26:05,VALID,1002.44,VALID,0,VALID,94.621,VALID,0,VALID,24.0557,VALID,357,VALID,0.427344,
2009-05-16, 01:27:05,VALID,1002.44,VALID,0,VALID,94.5981,VALID,0,VALID,24.0326,VALID,357,VALID,0.576172,
2009-05-16, 01:28:05,VALID,1002.42,VALID,0,VALID,94.5829,VALID,0,VALID,24.0326,VALID,357,VALID,0.461328,
2009-05-16, 01:29:05,VALID,1002.41,VALID,0,VALID,94.56,VALID,0,VALID,24.0539,VALID,357,VALID,0.546875,
2009-05-16, 01:30:05,VALID,1002.38,VALID,0,VALID,94.621,VALID,0.100563,VALID,24.0326,VALID,357,VALID,0.628906,
2009-05-16, 01:31:05,VALID,1002.36,VALID,0,VALID,94.6057,VALID,0.100563,VALID,23.9919,VALID,357,VALID,0.494141,
2009-05-16, 01:32:05,VALID,1002.35,VALID,0,VALID,94.6134,VALID,0.100563,VALID,24.0326,VALID,357,VALID,0.556641,
2009-05-16, 01:33:05,VALID,1002.35,VALID,0,VALID,94.6668,VALID,0,VALID,24.0326,VALID,357,VALID,0.544922,
2009-05-16, 01:34:05,VALID,1002.33,VALID,0,VALID,94.6668,VALID,0,VALID,24.0734,VALID,357,VALID,0.435547,
2009-05-16, 01:35:05,VALID,1002.34,VALID,0,VALID,94.6668,VALID,0,VALID,24.0326,VALID,357,VALID,0.387891,
2009-05-16, 01:36:05,VALID,1002.32,VALID,0,VALID,94.6744,VALID,0,VALID,24.0521,VALID,357,VALID,0.361719,
2009-05-16, 01:37:05,VALID,1002.35,VALID,0,VALID,94.7202,VALID,0.100563,VALID,24.0734,VALID,357,VALID,0.308203,
2009-05-16, 01:38:05,VALID,1002.38,VALID,0,VALID,94.7125,VALID,0.100563,VALID,24.0308,VALID,357,VALID,0.239453,
2009-05-16, 01:39:05,VALID,1002.4,VALID,0,VALID,94.6973,VALID,0.100563,VALID,24.0734,VALID,357,VALID,0.269141,
2009-05-16, 01:40:05,VALID,1002.42,VALID,0,VALID,94.7049,VALID,0.100563,VALID,24.0716,VALID,357,VALID,0.269922,
2009-05-16, 01:41:05,VALID,1002.44,VALID,0,VALID,94.7202,VALID,0.100563,VALID,24.0697,VALID,357,VALID,0.337891,
2009-05-16, 01:42:05,VALID,1002.45,VALID,0,VALID,94.7278,VALID,0,VALID,24.0929,VALID,357,VALID,0.421875,
2009-05-16, 01:43:05,VALID,1002.42,VALID,0,VALID,94.7202,VALID,0,VALID,24.0716,VALID,357,VALID,0.506641,
2009-05-16, 01:44:05,VALID,1002.41,VALID,0,VALID,94.682,VALID,0,VALID,24.0929,VALID,357,VALID,0.417188,
2009-05-16, 01:45:05,VALID,1002.42,VALID,0,VALID,94.6286,VALID,0,VALID,24.0947,VALID,357,VALID,0.411719,
2009-05-16, 01:46:05,VALID,1002.4,VALID,0,VALID,94.6134,VALID,0,VALID,24.0326,VALID,357,VALID,0.301562,
2009-05-16, 01:47:05,VALID,1002.38,VALID,0,VALID,94.6286,VALID,0,VALID,24.0345,VALID,357,VALID,0.375391,
2009-05-16, 01:48:05,VALID,1002.36,VALID,0,VALID,94.5981,VALID,0,VALID,24.0345,VALID,357,VALID,0.49375,
2009-05-16, 01:49:05,VALID,1002.35,VALID,0,VALID,94.621,VALID,0,VALID,24.0345,VALID,357,VALID,0.539063,
2009-05-16, 01:50:05,VALID,1002.34,VALID,0,VALID,94.6668,VALID,0,VALID,24.0345,VALID,357,VALID,0.558984,
2009-05-16, 01:51:05,VALID,1002.33,VALID,0,VALID,94.6591,VALID,0,VALID,24.0132,VALID,357,VALID,0.421484,
2009-05-16, 01:52:05,VALID,1002.29,VALID,0,VALID,94.621,VALID,0,VALID,24.0132,VALID,357,VALID,0.379687,
2009-05-16, 01:53:05,VALID,1002.28,VALID,0,VALID,94.6057,VALID,0,VALID,24.015,VALID,357,VALID,0.4375,
2009-05-16, 01:54:05,VALID,1002.26,VALID,0,VALID,94.5523,VALID,0,VALID,23.9761,VALID,357,VALID,0.453516,
2009-05-16, 01:55:05,VALID,1002.24,VALID,0,VALID,94.6057,VALID,0,VALID,23.9955,VALID,357,VALID,0.452344,
2009-05-16, 01:56:05,VALID,1002.24,VALID,0,VALID,94.6439,VALID,0,VALID,24.015,VALID,357,VALID,0.469141,
2009-05-16, 01:57:05,VALID,1002.21,VALID,0,VALID,94.6973,VALID,0,VALID,24.0132,VALID,357,VALID,0.474219,
2009-05-16, 01:58:05,VALID,1002.19,VALID,0,VALID,94.6668,VALID,0,VALID,24.0363,VALID,357,VALID,0.483984,
2009-05-16, 01:59:05,VALID,1002.22,VALID,0,VALID,94.5829,VALID,0,VALID,23.9937,VALID,357,VALID,0.437891,
2009-05-16, 02:00:05,VALID,1002.2,VALID,0,VALID,94.5142,VALID,0,VALID,23.9955,VALID,357,VALID,0.487109,
2009-05-16, 02:01:05,VALID,1002.17,VALID,0,VALID,94.4684,VALID,0,VALID,23.9779,VALID,357,VALID,0.423828,
2009-05-16, 02:02:05,VALID,1002.2,VALID,0,VALID,94.4379,VALID,0,VALID,23.9177,VALID,357,VALID,0.414063,
2009-05-16, 02:03:05,VALID,1002.2,VALID,0,VALID,94.4532,VALID,0,VALID,23.9177,VALID,357,VALID,0.460938,
2009-05-16, 02:04:05,VALID,1002.2,VALID,0,VALID,94.5752,VALID,0,VALID,23.9389,VALID,357,VALID,0.350781,
2009-05-16, 02:05:05,VALID,1002.22,VALID,0,VALID,94.6668,VALID,0,VALID,23.9761,VALID,357,VALID,0.356641,
2009-05-16, 02:06:05,VALID,1002.18,VALID,0,VALID,94.7125,VALID,0,VALID,23.9955,VALID,357,VALID,0.512109,
2009-05-16, 02:07:05,VALID,1002.19,VALID,0,VALID,94.7354,VALID,0,VALID,24.015,VALID,357,VALID,0.372266,
2009-05-16, 02:08:05,VALID,1002.18,VALID,0,VALID,94.7125,VALID,0,VALID,24.015,VALID,357,VALID,0.421484,
2009-05-16, 02:09:05,VALID,1002.18,VALID,0,VALID,94.6591,VALID,0,VALID,24.0345,VALID,357,VALID,0.291016,
2009-05-16, 02:10:05,VALID,1002.18,VALID,0,VALID,94.6668,VALID,0,VALID,24.015,VALID,357,VALID,0.389844,
2009-05-16, 02:11:05,VALID,1002.17,VALID,0,VALID,94.6744,VALID,0,VALID,24.0345,VALID,357,VALID,0.336328,
2009-05-16, 02:12:05,VALID,1002.18,VALID,0,VALID,94.6515,VALID,0,VALID,24.015,VALID,357,VALID,0.213672,
2009-05-16, 02:13:05,VALID,1002.17,VALID,0,VALID,94.6744,VALID,0,VALID,24.015,VALID,357,VALID,0.256641,
2009-05-16, 02:14:05,VALID,1002.2,VALID,0,VALID,94.6591,VALID,0,VALID,24.015,VALID,357,VALID,0.212891,
2009-05-16, 02:15:05,VALID,1002.21,VALID,0,VALID,94.6744,VALID,0,VALID,24.0345,VALID,357,VALID,0,
2009-05-16, 02:16:05,VALID,1002.16,VALID,0,VALID,94.6897,VALID,0,VALID,24.0539,VALID,357,VALID,0.271484,
2009-05-16, 02:17:05,VALID,1002.15,VALID,0,VALID,94.766,VALID,0,VALID,24.0929,VALID,357,VALID,0.342578,
2009-05-16, 02:18:05,VALID,1002.16,VALID,0,VALID,94.8041,VALID,0,VALID,24.1123,VALID,5,VALID,0.579687,
2009-05-16, 02:19:05,VALID,1002.15,VALID,0,VALID,94.7965,VALID,0,VALID,24.1513,VALID,6,VALID,0.479297,
2009-05-16, 02:20:05,VALID,1002.12,VALID,0,VALID,94.8728,VALID,0,VALID,24.2486,VALID,11,VALID,0.538281,
2009-05-16, 02:21:05,VALID,1002.13,VALID,0,VALID,94.8422,VALID,0,VALID,24.2875,VALID,11,VALID,0.434766,
2009-05-16, 02:22:05,VALID,1002.1,VALID,0,VALID,94.766,VALID,0,VALID,24.3265,VALID,11,VALID,0.293359,
2009-05-16, 02:23:05,VALID,1002.11,VALID,0,VALID,94.6973,VALID,0,VALID,24.3459,VALID,11,VALID,0.157031,
2009-05-16, 02:24:05,VALID,1002.12,VALID,0,VALID,94.6439,VALID,0,VALID,24.3459,VALID,11,VALID,0.139453,
2009-05-16, 02:25:05,VALID,1002.1,VALID,0,VALID,94.5905,VALID,0,VALID,24.3849,VALID,11,VALID,0.203125,
2009-05-16, 02:26:05,VALID,1002.1,VALID,0,VALID,94.5523,VALID,0,VALID,24.3849,VALID,11,VALID,0,
2009-05-16, 02:27:05,VALID,1002.08,VALID,0,VALID,94.5066,VALID,0,VALID,24.4062,VALID,11,VALID,0,
2009-05-16, 02:28:05,VALID,1002.07,VALID,0,VALID,94.4455,VALID,0,VALID,24.3636,VALID,11,VALID,0,
2009-05-16, 02:29:05,VALID,1002.09,VALID,0,VALID,94.3845,VALID,0,VALID,24.3849,VALID,11,VALID,0.103125,
2009-05-16, 02:30:05,VALID,1002.1,VALID,0,VALID,94.3769,VALID,0,VALID,24.3849,VALID,11,VALID,0.33125,
2009-05-16, 02:31:05,VALID,1002.06,VALID,0,VALID,94.354,VALID,0,VALID,24.4043,VALID,11,VALID,0.499219,
2009-05-16, 02:32:05,VALID,1002.05,VALID,0,VALID,94.2777,VALID,0,VALID,24.3636,VALID,11,VALID,0.399219,
2009-05-16, 02:33:05,VALID,1002.05,VALID,0,VALID,94.2319,VALID,0,VALID,24.3636,VALID,11,VALID,0.275781,
2009-05-16, 02:34:05,VALID,1002.04,VALID,0,VALID,94.1328,VALID,0,VALID,24.3459,VALID,11,VALID,0.0078125,
2009-05-16, 02:35:05,VALID,1002.06,VALID,0,VALID,94.0031,VALID,0,VALID,24.2875,VALID,11,VALID,0.401172,
2009-05-16, 02:36:05,VALID,1002.06,VALID,0,VALID,94.0031,VALID,0,VALID,24.2681,VALID,11,VALID,0.353906,
2009-05-16, 02:37:05,VALID,1002.08,VALID,0,VALID,93.9649,VALID,0,VALID,24.2273,VALID,11,VALID,0.342187,
2009-05-16, 02:38:05,VALID,1002.09,VALID,0,VALID,93.9573,VALID,0,VALID,24.2291,VALID,11,VALID,0.289844,
2009-05-16, 02:39:05,VALID,1002.1,VALID,0,VALID,93.9954,VALID,0,VALID,24.2097,VALID,11,VALID,0.223438,
2009-05-16, 02:40:05,VALID,1002.1,VALID,0,VALID,93.9497,VALID,0,VALID,24.1707,VALID,11,VALID,0.190625,
2009-05-16, 02:41:05,VALID,1002.13,VALID,0,VALID,93.9115,VALID,0,VALID,24.1318,VALID,11,VALID,0.124609,
2009-05-16, 02:42:05,VALID,1002.13,VALID,0,VALID,93.942,VALID,0,VALID,24.1105,VALID,11,VALID,0.0535156,
2009-05-16, 02:43:04,VALID,1002.15,VALID,0,VALID,94.0565,VALID,0,VALID,24.1726,VALID,11,VALID,0.115625,
2009-05-16, 02:44:04,VALID,1002.17,VALID,0,VALID,94.1938,VALID,0,VALID,24.1902,VALID,11,VALID,0,
2009-05-16, 02:45:04,VALID,1002.14,VALID,0,VALID,94.2624,VALID,0,VALID,24.2291,VALID,11,VALID,0,
2009-05-16, 02:46:04,VALID,1002.16,VALID,0,VALID,94.3158,VALID,0,VALID,24.2681,VALID,11,VALID,0,
2009-05-16, 02:47:04,VALID,1002.1,VALID,0,VALID,94.3082,VALID,0,VALID,24.2681,VALID,11,VALID,0.0242187,
2009-05-16, 02:48:04,VALID,1002.13,VALID,0,VALID,94.2319,VALID,0,VALID,24.2681,VALID,11,VALID,0.295312,
2009-05-16, 02:49:04,VALID,1002.1,VALID,0,VALID,94.1404,VALID,0,VALID,24.2291,VALID,11,VALID,0.285547,
2009-05-16, 02:50:04,VALID,1002.09,VALID,0,VALID,94.087,VALID,0,VALID,24.1689,VALID,11,VALID,0.35,
2009-05-16, 02:51:04,VALID,1002.11,VALID,0,VALID,94.1633,VALID,0,VALID,24.1707,VALID,11,VALID,0.273828,
2009-05-16, 02:52:04,VALID,1002.08,VALID,0,VALID,94.1328,VALID,0,VALID,24.2115,VALID,11,VALID,0.351953,
2009-05-16, 02:53:04,VALID,1002.09,VALID,0,VALID,94.1175,VALID,0,VALID,24.1513,VALID,11,VALID,0.261719,
2009-05-16, 02:54:04,VALID,1002.09,VALID,0,VALID,94.1099,VALID,0,VALID,24.1513,VALID,11,VALID,0.392188,
2009-05-16, 02:55:04,VALID,1002.1,VALID,0,VALID,94.1251,VALID,0,VALID,24.1123,VALID,11,VALID,0.307031,
2009-05-16, 02:56:04,VALID,1002.08,VALID,0,VALID,94.2319,VALID,0,VALID,24.1318,VALID,11,VALID,0.308203,
2009-05-16, 02:57:04,VALID,1002.05,VALID,0,VALID,94.209,VALID,0,VALID,24.1123,VALID,11,VALID,0.288281,
2009-05-16, 02:58:04,VALID,1002.04,VALID,0,VALID,94.1862,VALID,0,VALID,24.0929,VALID,11,VALID,0.289844,
2009-05-16, 02:59:04,VALID,1002.02,VALID,0,VALID,94.209,VALID,0,VALID,24.0716,VALID,11,VALID,0.182031,
2009-05-16, 03:00:04,VALID,1002.01,VALID,0,VALID,94.2624,VALID,0,VALID,24.0734,VALID,11,VALID,0.2125,
2009-05-16, 03:01:04,VALID,1001.97,VALID,0,VALID,94.3311,VALID,0,VALID,24.1123,VALID,11,VALID,0.216797,
2009-05-16, 03:02:04,VALID,1001.94,VALID,0,VALID,94.2701,VALID,0,VALID,24.0929,VALID,11,VALID,0.151953,
2009-05-16, 03:03:04,VALID,1001.92,VALID,0,VALID,94.2624,VALID,0,VALID,24.0947,VALID,11,VALID,0.335547,
2009-05-16, 03:04:04,VALID,1001.88,VALID,0,VALID,94.2548,VALID,0,VALID,24.0734,VALID,11,VALID,0.396484,
2009-05-16, 03:05:04,VALID,1001.87,VALID,0,VALID,94.1862,VALID,0,VALID,24.015,VALID,11,VALID,0.508594,
2009-05-16, 03:06:04,VALID,1001.89,VALID,0,VALID,94.2701,VALID,0,VALID,24.015,VALID,10,VALID,0.442578,
2009-05-16, 03:07:04,VALID,1001.88,VALID,0,VALID,94.5218,VALID,0,VALID,24.0132,VALID,10,VALID,0.284375,
2009-05-16, 03:08:04,VALID,1001.89,VALID,0,VALID,94.6439,VALID,0,VALID,24.1123,VALID,10,VALID,0.251172,
2009-05-16, 03:09:04,VALID,1001.86,VALID,0,VALID,94.6897,VALID,0,VALID,24.1707,VALID,10,VALID,0.270312,
2009-05-16, 03:10:04,VALID,1001.86,VALID,0,VALID,94.6439,VALID,0,VALID,24.1902,VALID,10,VALID,0.112109,
2009-05-16, 03:11:04,VALID,1001.86,VALID,0,VALID,94.4913,VALID,0,VALID,24.1707,VALID,10,VALID,0.3875,
2009-05-16, 03:12:04,VALID,1001.82,VALID,0,VALID,94.4608,VALID,0,VALID,24.1531,VALID,3,VALID,0.427344,
2009-05-16, 03:13:04,VALID,1001.84,VALID,0,VALID,94.5142,VALID,0,VALID,24.1318,VALID,3,VALID,0.35625,
2009-05-16, 03:14:04,VALID,1001.83,VALID,0,VALID,94.4074,VALID,0,VALID,24.0929,VALID,3,VALID,0.3125,
2009-05-16, 03:15:04,VALID,1001.82,VALID,0,VALID,94.415,VALID,0,VALID,24.0521,VALID,3,VALID,0.255469,
2009-05-16, 03:16:04,VALID,1001.85,VALID,0,VALID,94.4074,VALID,0,VALID,24.0326,VALID,3,VALID,0.109766,
2009-05-16, 03:17:04,VALID,1001.83,VALID,0,VALID,94.4608,VALID,0,VALID,24.0345,VALID,3,VALID,0.0972656,
2009-05-16, 03:18:04,VALID,1001.84,VALID,0,VALID,94.4227,VALID,0,VALID,23.9742,VALID,3,VALID,0,
2009-05-16, 03:19:04,VALID,1001.85,VALID,0,VALID,94.415,VALID,0,VALID,23.9566,VALID,3,VALID,0,
2009-05-16, 03:20:04,VALID,1001.84,VALID,0,VALID,94.4837,VALID,0,VALID,23.9761,VALID,3,VALID,0.192188,
2009-05-16, 03:21:04,VALID,1001.81,VALID,0,VALID,94.56,VALID,0,VALID,24.015,VALID,3,VALID,0.214062,
2009-05-16, 03:22:04,VALID,1001.83,VALID,0,VALID,94.56,VALID,0,VALID,23.9955,VALID,3,VALID,0.317578,
2009-05-16, 03:23:04,VALID,1001.81,VALID,0,VALID,94.4989,VALID,0,VALID,23.9955,VALID,3,VALID,0.348047,
2009-05-16, 03:24:04,VALID,1001.77,VALID,0,VALID,94.4455,VALID,0,VALID,23.9371,VALID,3,VALID,0.390625,
2009-05-16, 03:25:04,VALID,1001.76,VALID,0,VALID,94.6286,VALID,0,VALID,23.9371,VALID,3,VALID,0.302344,
2009-05-16, 03:26:04,VALID,1001.79,VALID,0,VALID,94.7202,VALID,0,VALID,23.9955,VALID,3,VALID,0.326953,
2009-05-16, 03:27:04,VALID,1001.73,VALID,0,VALID,94.7736,VALID,0,VALID,24.0326,VALID,3,VALID,0.484766,
2009-05-16, 03:28:04,VALID,1001.76,VALID,0,VALID,94.6897,VALID,0,VALID,24.0345,VALID,3,VALID,0.45625,
2009-05-16, 03:29:04,VALID,1001.76,VALID,0,VALID,94.6134,VALID,0,VALID,24.015,VALID,3,VALID,0.283594,
2009-05-16, 03:30:04,VALID,1001.76,VALID,0,VALID,94.621,VALID,0,VALID,23.9955,VALID,3,VALID,0.295703,
2009-05-16, 03:31:04,VALID,1001.73,VALID,0,VALID,94.5447,VALID,0,VALID,23.9761,VALID,3,VALID,0.244922,
2009-05-16, 03:32:04,VALID,1001.74,VALID,0,VALID,94.5981,VALID,0,VALID,23.9371,VALID,3,VALID,0.240625,
2009-05-16, 03:33:04,VALID,1001.7,VALID,0,VALID,94.7354,VALID,0,VALID,23.9761,VALID,3,VALID,0.313672,
2009-05-16, 03:34:04,VALID,1001.72,VALID,0,VALID,94.7431,VALID,0,VALID,23.9955,VALID,3,VALID,0,
2009-05-16, 03:35:04,VALID,1001.69,VALID,0,VALID,94.7354,VALID,0,VALID,23.9761,VALID,3,VALID,0,
2009-05-16, 03:36:04,VALID,1001.72,VALID,0,VALID,94.7202,VALID,0,VALID,23.9761,VALID,3,VALID,0,
2009-05-16, 03:37:04,VALID,1001.71,VALID,0,VALID,94.6591,VALID,0,VALID,23.9566,VALID,3,VALID,0,
2009-05-16, 03:38:04,VALID,1001.7,VALID,0,VALID,94.6363,VALID,0,VALID,23.9353,VALID,3,VALID,0,
2009-05-16, 03:39:04,VALID,1001.71,VALID,0,VALID,94.6668,VALID,0,VALID,23.9371,VALID,3,VALID,0,
2009-05-16, 03:40:04,VALID,1001.72,VALID,0,VALID,94.7583,VALID,0,VALID,23.9566,VALID,3,VALID,0.192578,
2009-05-16, 03:41:04,VALID,1001.73,VALID,0,VALID,94.7888,VALID,0,VALID,23.9955,VALID,3,VALID,0.341406,
2009-05-16, 03:42:04,VALID,1001.75,VALID,0,VALID,94.8041,VALID,0,VALID,24.015,VALID,3,VALID,0.311328,
2009-05-16, 03:43:04,VALID,1001.77,VALID,0,VALID,94.827,VALID,0,VALID,24.0345,VALID,4,VALID,0.214844,
2009-05-16, 03:44:04,VALID,1001.77,VALID,0,VALID,94.827,VALID,0,VALID,24.0539,VALID,4,VALID,0.0730469,